SV4JYD-14 Weather Reports


time (UTC)temp
C
wind
direction
speed
KPH
gust
KPH
rain 1hr
cm
rain 24hr
cm
rain mn
cm
humidity
%
barometer
mb
20260508101713 21 190 9.7 0.0 0.00 0.00 0.00 41 1020.0
20260508100212 21 360 8.0 14.5 0.00 0.00 0.00 40 1019.0
20260508094712 21 170 6.4 0.0 0.00 0.00 0.00 43 1019.0
20260508093212 21 170 6.4 0.0 0.00 0.00 0.00 40 1019.0
20260508091711 21 360 8.0 17.7 0.00 0.00 0.00 39 1020.0
20260508090211 21 130 8.0 0.0 0.00 0.00 0.00 36 1019.0
20260508084711 21 130 8.0 0.0 0.00 0.00 0.00 40 1019.0
20260508083211 21 140 8.0 0.0 0.00 0.00 0.00 40 1019.0
20260508081540 21 140 8.0 0.0 0.00 0.00 0.00 40 1020.0
20260508080040 21 140 9.7 0.0 0.00 0.00 0.00 48 1019.0
20260508074539 21 140 9.7 0.0 0.00 0.00 0.00 40 1019.0
20260508073039 20 130 12.9 0.0 0.00 0.00 0.00 43 1019.0
20260508071538 20 130 12.9 0.0 0.00 0.00 0.00 56 1019.0
20260508070038 20 150 8.0 0.0 0.00 0.00 0.00 61 1018.0
20260508064538 19 150 8.0 0.0 0.00 0.00 0.00 62 1018.0
20260508063037 19 130 8.0 0.0 0.00 0.00 0.00 63 1019.0
20260508061537 18 130 8.0 0.0 0.00 0.00 0.00 65 1019.0
20260508060037 18 140 6.4 0.0 0.00 0.00 0.00 66 1018.0
20260508054537 18 140 6.4 0.0 0.00 0.00 0.00 67 1018.0
20260508053036 18 0 0.0 0.0 0.00 0.00 0.00 69 1018.0
20260508051537 17 177 1.6 1.6 0.00 0.00 0.00 69 1019.0
20260508050036 17 0 4.8 0.0 0.00 0.00 0.00 70 1019.0
20260508044536 16 0 4.8 0.0 0.00 0.00 0.00 68 1019.0
20260508043036 16 0 0.0 0.0 0.00 0.00 0.00 66 1019.0
20260508041535 15 0 0.0 0.0 0.00 0.00 0.00 66 1019.0
20260508040035 15 0 4.8 0.0 0.00 0.00 0.00 66 1019.0
20260508034535 15 0 4.8 0.0 0.00 0.00 0.00 65 1018.0
20260508033035 15 170 4.8 0.0 0.00 0.00 0.00 65 1019.0
20260508031534 15 170 4.8 0.0 0.00 0.00 0.00 64 1019.0
20260508030034 15 186 6.4 8.0 0.00 0.00 0.00 64 1018.0
20260508024534 15 0 4.8 0.0 0.00 0.00 0.00 63 1018.0
20260508023034 15 0 4.8 0.0 0.00 0.00 0.00 62 1018.0
20260508021533 15 0 4.8 0.0 0.00 0.00 0.00 62 1019.0
20260508020033 15 235 1.6 8.0 0.00 0.00 0.00 60 1018.0
20260508014533 15 0 4.8 0.0 0.00 0.00 0.00 60 1018.0
20260508013033 15 0 4.8 0.0 0.00 0.00 0.00 59 1018.0
20260508011532 15 0 4.8 0.0 0.00 0.00 0.00 59 1019.0
20260508010032 16 236 6.4 8.0 0.00 0.00 0.00 57 1019.0
20260508004532 16 180 4.8 0.0 0.00 0.00 0.00 56 1019.0
20260508003031 16 180 4.8 0.0 0.00 0.00 0.00 56 1019.0
20260508001531 16 180 4.8 0.0 0.00 0.00 0.00 56 1019.0
20260508000031 16 360 1.6 8.0 0.00 0.00 0.00 57 1019.0
20260507234531 16 360 1.6 8.0 0.00 0.00 0.00 58 1019.0
20260507233030 16 360 1.6 8.0 0.00 0.00 0.00 58 1019.0
20260507231530 16 360 3.2 8.0 0.00 0.00 0.00 57 1019.0
20260507230030 16 360 1.6 8.0 0.00 0.00 0.00 56 1019.0
20260507224530 16 360 3.2 8.0 0.00 0.00 0.00 56 1019.0
20260507223029 16 360 1.6 6.4 0.00 0.00 0.00 56 1019.0
20260507221529 16 360 1.6 3.2 0.00 0.00 0.00 55 1019.0
20260507220029 16 360 1.6 8.0 0.00 0.00 0.00 55 1019.0
20260507214529 17 0 4.8 0.0 0.00 0.00 0.00 54 1019.0
20260507213028 17 0 4.8 0.0 0.00 0.00 0.00 53 1019.0
20260507211528 17 0 4.8 0.0 0.00 0.00 0.00 52 1019.0
20260507210028 17 0 4.8 0.0 0.00 0.00 0.00 52 1019.0
20260507204528 17 0 4.8 0.0 0.00 0.00 0.00 52 1019.0
20260507203028 18 0 4.8 0.0 0.00 0.00 0.00 49 1019.0
20260507201527 18 0 4.8 0.0 0.00 0.00 0.00 49 1019.0
20260507200027 20 0 4.8 0.0 0.00 0.00 0.00 46 1019.0
20260507194527 20 0 4.8 0.0 0.00 0.00 0.00 42 1019.0
20260507193027 21 0 4.8 0.0 0.00 0.00 0.00 37 1019.0
20260507191526 21 0 4.8 0.0 0.00 0.00 0.00 37 1019.0
20260507190026 21 0 4.8 0.0 0.00 0.00 0.00 40 1019.0
20260507184526 20 0 4.8 0.0 0.00 0.00 0.00 44 1019.0
20260507183025 21 240 8.0 0.0 0.00 0.00 0.00 38 1019.0
20260507181525 21 240 8.0 0.0 0.00 0.00 0.00 41 1019.0
20260507180025 20 250 9.7 0.0 0.00 0.00 0.00 54 1018.0
20260507174525 22 250 9.7 0.0 0.00 0.00 0.00 40 1018.0
20260507173024 22 230 12.9 0.0 0.00 0.00 0.00 40 1018.0
20260507171524 23 230 16.1 0.0 0.00 0.00 0.00 38 1018.0
20260507170024 23 230 16.1 0.0 0.00 0.00 0.00 38 1018.0
20260507164524 23 230 16.1 0.0 0.00 0.00 0.00 38 1018.0
20260507163024 23 230 16.1 0.0 0.00 0.00 0.00 38 1018.0
20260507161523 23 230 16.1 0.0 0.00 0.00 0.00 38 1018.0
20260507160023 23 230 14.5 0.0 0.00 0.00 0.00 35 1018.0
20260507154523 23 230 14.5 0.0 0.00 0.00 0.00 35 1018.0
20260507153022 24 230 14.5 0.0 0.00 0.00 0.00 33 1018.0
20260507151522 24 230 14.5 0.0 0.00 0.00 0.00 33 1018.0
20260507150022 24 230 16.1 0.0 0.00 0.00 0.00 33 1018.0
20260507144522 24 230 16.1 0.0 0.00 0.00 0.00 33 1018.0
20260507143022 24 230 17.7 0.0 0.00 0.00 0.00 33 1018.0
20260507141521 24 230 17.7 0.0 0.00 0.00 0.00 33 1019.0
20260507140021 24 210 19.3 0.0 0.00 0.00 0.00 31 1019.0
20260507134520 24 210 19.3 0.0 0.00 0.00 0.00 31 1019.0
20260507133020 25 210 12.9 0.0 0.00 0.00 0.00 29 1019.0
20260507131520 25 210 12.9 0.0 0.00 0.00 0.00 29 1019.0
20260507130019 25 200 9.7 0.0 0.00 0.00 0.00 29 1019.0
20260507124519 25 200 9.7 0.0 0.00 0.00 0.00 29 1019.0
20260507123021 26 160 14.5 0.0 0.00 0.00 0.00 28 1019.0
20260507121519 26 160 14.5 0.0 0.00 0.00 0.00 28 1019.0
20260507120018 25 130 9.7 0.0 0.00 0.00 0.00 27 1019.0
20260507114518 25 130 9.7 0.0 0.00 0.00 0.00 27 1019.0
20260507113018 24 140 14.5 0.0 0.00 0.00 0.00 31 1019.0
20260507111517 24 140 14.5 0.0 0.00 0.00 0.00 31 1019.0
20260507110017 24 140 9.7 0.0 0.00 0.00 0.00 33 1019.0
20260507104517 22 140 9.7 0.0 0.00 0.00 0.00 46 1019.0
20260507103017 21 120 14.5 0.0 0.00 0.00 0.00 47 1019.0